Location: La Oliva
(42.2466°N, 2.9955°E)
Time: 10:47:37
(UTC+00:00)

Cosmos 2098 Rocket - Pass Details

Date: 22 April 2021
Orbit: 367 x 1178 km, 82.9° (Epoch: 11 May)

Event Time Altitude Azimuth Distance (km) Brightness Sun altitude
Rises 19:13:01 0° 352° (N) 3,960 7.7 -7.0°
Reaches altitude 10° 19:15:37 10° 352° (N) 3,050 7.1 -7.4°
Maximum altitude 19:22:59 90° 69° (ENE) 1,184 4.5 -8.6°
Drops below altitude 10° 19:30:16 10° 175° (S) 3,011 6.3 -9.8°
Sets 19:32:48 0° 175° (S) 3,907 6.8 -10.3°
